Météo par heure à Kytchenkivka

Ce jour, 25 Juillet, Dimanche

Heure Température Précipitation Vent Pression Humidité
00:00 +18°C° 0.1 mm 2 m/s 747 mmHg 76%
01:00 +18°C° 0.1 mm 2 m/s 747 mmHg 79%
02:00 +17°C° 0.1 mm 2 m/s 747 mmHg 82%
03:00 +17°C° 0 mm 2 m/s 747 mmHg 80%
04:00 +18°C° 0 mm 2 m/s 748 mmHg 79%
05:00 +18°C° 0 mm 2 m/s 748 mmHg 78%
06:00 +20°C° 0 mm 2 m/s 748 mmHg 70%
07:00 +23°C° 0 mm 2 m/s 748 mmHg 61%
08:00 +25°C° 0 mm 2 m/s 749 mmHg 52%
09:00 +26°C° 0 mm 2 m/s 749 mmHg 48%
10:00 +27°C° 0 mm 2 m/s 749 mmHg 44%
11:00 +29°C° 0 mm 2 m/s 749 mmHg 40%
12:00 +29°C° 0 mm 2 m/s 749 mmHg 40%
13:00 +29°C° 0 mm 1 m/s 749 mmHg 40%
14:00 +29°C° 0 mm 1 m/s 749 mmHg 40%
15:00 +28°C° 0 mm 1 m/s 749 mmHg 42%
16:00 +27°C° 0 mm 1 m/s 749 mmHg 43%
17:00 +27°C° 0 mm 2 m/s 749 mmHg 45%
18:00 +26°C° 0 mm 1 m/s 749 mmHg 47%
19:00 +25°C° 0 mm 1 m/s 749 mmHg 50%
20:00 +24°C° 0 mm 1 m/s 749 mmHg 52%
21:00 +23°C° 0 mm 1 m/s 750 mmHg 53%
22:00 +21°C° 0 mm 2 m/s 750 mmHg 54%
23:00 +20°C° 0 mm 2 m/s 750 mmHg 55%

Demain, 26 Juillet, Lundi

Heure Température Précipitation Vent Pression Humidité
00:00 +20°C° 0 mm 2 m/s 750 mmHg 55%
01:00 +19°C° 0 mm 2 m/s 750 mmHg 56%
02:00 +18°C° 0 mm 2 m/s 750 mmHg 56%
03:00 +18°C° 0 mm 2 m/s 750 mmHg 57%
04:00 +18°C° 0 mm 2 m/s 751 mmHg 58%
05:00 +18°C° 0 mm 2 m/s 751 mmHg 59%
06:00 +20°C° 0 mm 2 m/s 751 mmHg 53%
07:00 +24°C° 0 mm 2 m/s 751 mmHg 47%
08:00 +26°C° 0 mm 2 m/s 751 mmHg 41%
09:00 +28°C° 0 mm 2 m/s 751 mmHg 38%
10:00 +29°C° 0 mm 3 m/s 751 mmHg 34%
11:00 +30°C° 0 mm 3 m/s 751 mmHg 31%
12:00 +31°C° 0 mm 3 m/s 751 mmHg 30%
13:00 +31°C° 0 mm 3 m/s 750 mmHg 29%
14:00 +33°C° 0 mm 3 m/s 750 mmHg 29%
15:00 +31°C° 0 mm 3 m/s 750 mmHg 30%
16:00 +30°C° 0 mm 3 m/s 750 mmHg 32%
17:00 +30°C° 0 mm 3 m/s 750 mmHg 34%
18:00 +28°C° 0 mm 3 m/s 750 mmHg 36%
19:00 +27°C° 0 mm 3 m/s 750 mmHg 39%
20:00 +25°C° 0 mm 4 m/s 750 mmHg 41%
21:00 +24°C° 0 mm 3 m/s 750 mmHg 43%
22:00 +22°C° 0 mm 3 m/s 750 mmHg 45%
23:00 +21°C° 0 mm 3 m/s 751 mmHg 47%

Après-demain, 27 Juillet, Mardi

Heure Température Précipitation Vent Pression Humidité
00:00 +21°C° 0 mm 3 m/s 751 mmHg 48%
01:00 +20°C° 0 mm 3 m/s 751 mmHg 50%
02:00 +19°C° 0 mm 3 m/s 751 mmHg 51%
03:00 +19°C° 0 mm 3 m/s 751 mmHg 52%
04:00 +19°C° 0 mm 3 m/s 751 mmHg 54%
05:00 +19°C° 0 mm 3 m/s 751 mmHg 55%
06:00 +21°C° 0 mm 3 m/s 751 mmHg 49%
07:00 +25°C° 0 mm 3 m/s 751 mmHg 44%
08:00 +27°C° 0 mm 3 m/s 751 mmHg 39%
09:00 +29°C° 0 mm 3 m/s 751 mmHg 35%
10:00 +30°C° 0 mm 3 m/s 750 mmHg 32%
11:00 +33°C° 0 mm 3 m/s 750 mmHg 28%
12:00 +33°C° 0 mm 3 m/s 750 mmHg 27%
13:00 +33°C° 0 mm 3 m/s 750 mmHg 26%
14:00 +34°C° 0 mm 2 m/s 749 mmHg 25%
15:00 +34°C° 0 mm 2 m/s 749 mmHg 26%
16:00 +32°C° 0 mm 2 m/s 749 mmHg 26%
17:00 +32°C° 0 mm 2 m/s 749 mmHg 27%
18:00 +30°C° 0 mm 2 m/s 749 mmHg 30%
19:00 +28°C° 0 mm 2 m/s 749 mmHg 33%
20:00 +27°C° 0 mm 3 m/s 749 mmHg 36%
21:00 +26°C° 0 mm 3 m/s 749 mmHg 39%
22:00 +25°C° 0 mm 3 m/s 749 mmHg 42%
23:00 +24°C° 0 mm 3 m/s 749 mmHg 45%

28 Juillet, Mercredi

Heure Température Précipitation Vent Pression Humidité
00:00 +22°C° 0 mm 3 m/s 749 mmHg 48%
01:00 +22°C° 0 mm 3 m/s 749 mmHg 50%
02:00 +21°C° 0 mm 3 m/s 749 mmHg 52%
03:00 +21°C° 0 mm 3 m/s 748 mmHg 54%
04:00 +20°C° 0 mm 3 m/s 748 mmHg 55%
05:00 +20°C° 0 mm 3 m/s 748 mmHg 57%
06:00 +22°C° 0 mm 3 m/s 748 mmHg 52%
07:00 +26°C° 0 mm 4 m/s 748 mmHg 48%
08:00 +28°C° 0 mm 4 m/s 748 mmHg 43%
09:00 +30°C° 0 mm 4 m/s 748 mmHg 40%
10:00 +32°C° 0 mm 5 m/s 747 mmHg 36%
11:00 +33°C° 0 mm 5 m/s 747 mmHg 33%
12:00 +33°C° 0 mm 5 m/s 747 mmHg 34%
13:00 +33°C° 0 mm 5 m/s 746 mmHg 35%
14:00 +32°C° 0 mm 4 m/s 746 mmHg 36%
15:00 +29°C° 0.4 mm 4 m/s 746 mmHg 47%
16:00 +27°C° 0.4 mm 5 m/s 746 mmHg 59%
17:00 +25°C° 0.4 mm 5 m/s 745 mmHg 70%
18:00 +23°C° 0.3 mm 4 m/s 745 mmHg 75%
19:00 +22°C° 0.3 mm 4 m/s 745 mmHg 79%
20:00 +21°C° 0.3 mm 4 m/s 745 mmHg 84%
21:00 +20°C° 0.7 mm 3 m/s 744 mmHg 86%
22:00 +20°C° 0.7 mm 2 m/s 744 mmHg 88%
23:00 +21°C° 0.7 mm 1 m/s 744 mmHg 90%

29 Juillet, Jeudi

Heure Température Précipitation Vent Pression Humidité
00:00 +20°C° 0.2 mm 2 m/s 744 mmHg 90%
01:00 +20°C° 0.2 mm 2 m/s 743 mmHg 90%
02:00 +20°C° 0.2 mm 3 m/s 743 mmHg 90%
03:00 +19°C° 0 mm 3 m/s 743 mmHg 91%
04:00 +19°C° 0 mm 2 m/s 743 mmHg 91%
05:00 +19°C° 0 mm 2 m/s 743 mmHg 91%
06:00 +21°C° 0 mm 2 m/s 743 mmHg 84%
07:00 +24°C° 0 mm 2 m/s 743 mmHg 76%
08:00 +26°C° 0 mm 2 m/s 743 mmHg 69%
09:00 +28°C° 0 mm 2 m/s 743 mmHg 61%
10:00 +30°C° 0 mm 3 m/s 743 mmHg 54%
11:00 +33°C° 0 mm 3 m/s 742 mmHg 46%
12:00 +34°C° 0 mm 3 m/s 742 mmHg 43%
13:00 +34°C° 0 mm 4 m/s 742 mmHg 40%
14:00 +35°C° 0 mm 4 m/s 741 mmHg 36%
15:00 +34°C° 0.4 mm 4 m/s 741 mmHg 44%
16:00 +32°C° 0.4 mm 4 m/s 741 mmHg 51%
17:00 +29°C° 0.4 mm 3 m/s 741 mmHg 58%
18:00 +27°C° 1.1 mm 4 m/s 741 mmHg 68%
19:00 +25°C° 1.1 mm 4 m/s 741 mmHg 77%
20:00 +22°C° 1.1 mm 4 m/s 741 mmHg 86%
21:00 +21°C° 1.2 mm 3 m/s 741 mmHg 88%
22:00 +21°C° 1.2 mm 2 m/s 741 mmHg 89%
23:00 +21°C° 1.2 mm 1 m/s 741 mmHg 91%

30 Juillet, Vendredi

Heure Température Précipitation Vent Pression Humidité
00:00 +20°C° 0 mm 2 m/s 741 mmHg 91%
01:00 +20°C° 0 mm 2 m/s 741 mmHg 92%
02:00 +19°C° 0 mm 3 m/s 741 mmHg 93%
03:00 +19°C° 0 mm 3 m/s 741 mmHg 94%
04:00 +19°C° 0 mm 3 m/s 741 mmHg 96%
05:00 +19°C° 0 mm 3 m/s 741 mmHg 97%
06:00 +20°C° 0 mm 4 m/s 742 mmHg 91%
07:00 +21°C° 0 mm 4 m/s 742 mmHg 85%
08:00 +22°C° 0 mm 5 m/s 742 mmHg 80%
09:00 +25°C° 0 mm 5 m/s 743 mmHg 71%
10:00 +27°C° 0 mm 4 m/s 743 mmHg 62%
11:00 +28°C° 0 mm 4 m/s 743 mmHg 53%
12:00 +28°C° 0 mm 4 m/s 743 mmHg 53%
13:00 +28°C° 0 mm 4 m/s 743 mmHg 52%
14:00 +28°C° 0 mm 4 m/s 743 mmHg 52%
15:00 +28°C° 0 mm 4 m/s 743 mmHg 52%
16:00 +28°C° 0 mm 4 m/s 743 mmHg 52%
17:00 +28°C° 0 mm 4 m/s 743 mmHg 52%
18:00 +27°C° 0 mm 4 m/s 744 mmHg 56%
19:00 +26°C° 0 mm 3 m/s 744 mmHg 61%
20:00 +24°C° 0 mm 3 m/s 745 mmHg 65%
21:00 +24°C° 0 mm 3 m/s 745 mmHg 68%
22:00 +22°C° 0 mm 3 m/s 745 mmHg 71%
23:00 +21°C° 0 mm 2 m/s 745 mmHg 75%
Voir plus

Nous avons besoin de votre consentement

Meteoprog et ses fournisseurs de services peuvent stocker et accéder à des données personnelles telles que des cookies, des identifiants d'appareils ou d'autres technologies similaires sur votre appareil et traiter ces données pour personnaliser le contenu et les publicités, ainsi que pour fournir des fonctionnalités de médias sociaux et analyser le trafic.

  • Stocker et/ou accéder à des informations sur votre appareil

    Des cookies, des identifiants d'appareils ou d'autres informations peuvent être stockés ou accessibles sur votre appareil aux fins indiquées ci-dessus.

  • Annonces et contenus personnalisés, mesure des annonces et des contenus, connaissance de l'audience et développement de produits

    Les annonces et le contenu peuvent être personnalisés en fonction d'un profil. D'autres données peuvent être ajoutées pour mieux personnaliser les annonces et le contenu. Les performances des publicités et du contenu peuvent être mesurées. Il est possible d'obtenir des informations sur le public qui a vu les publicités et le contenu. Ces données peuvent être utilisées pour développer ou améliorer l'expérience de l'utilisateur, les systèmes et les logiciels.

En cliquant sur "J'accepte", vous autorisez l'utilisation de cookies, des identifiants d'appareils, des balises web ou d'autres technologies similaires. Vos paramètres peuvent être modifiés dans le navigateur de votre appareil.

Dans certains cas, des intérêts légitimes peuvent être invoqués plutôt qu'un consentement. Vous pouvez en savoir plus à ce sujet dans notre Politique de confidentialité et de cookies.